EST,Max TemperatureF,Mean TemperatureF,Min TemperatureF,Max Dew PointF,MeanDew PointF,Min DewpointF,Max Humidity, Mean Humidity, Min Humidity, Max Sea Level PressureIn, Mean Sea Level PressureIn, Min Sea Level PressureIn, Max VisibilityMiles, Mean VisibilityMiles, Min VisibilityMiles, Max Wind SpeedMPH, Mean Wind SpeedMPH, Max Gust SpeedMPH,PrecipitationIn, CloudCover, Events, WindDirDegrees
2012-12-1,78,63,47,56,48,44,86,65,43,30.37,30.30,30.26,10,5,0,13,4,16,0.00,3,Fog,89
2012-12-2,82,69,55,59,54,51,86,61,36,30.37,30.31,30.27,10,9,2,9,1,13,0.00,2,,79
2012-12-3,81,66,51,61,53,46,94,80,44,30.35,30.29,30.25,10,4,0,6,0,,0.00,3,Fog,142
2012-12-4,81,68,55,60,54,49,93,64,35,30.37,30.28,30.26,10,6,0,10,2,13,0.00,4,Fog,131
2012-12-5,80,64,47,55,49,44,89,60,30,30.26,30.18,30.10,10,9,4,9,1,13,0.00,1,,73
2012-12-6,77,66,54,59,56,51,93,74,54,30.14,30.09,30.04,10,10,9,12,4,17,0.00,4,,65
2012-12-7,69,63,57,57,56,54,90,79,68,30.10,30.05,29.98,10,7,2,9,4,13,0.00,7,,80
2012-12-8,80,69,58,63,59,55,93,74,54,30.11,30.05,30.01,10,4,0,10,4,12,0.00,7,Fog,151
2012-12-9,76,65,54,63,60,51,93,79,64,30.14,30.07,30.02,10,6,0,9,1,12,0.01,6,Fog-Rain,176
2012-12-10,82,68,54,66,58,52,93,69,45,30.02,29.93,29.81,10,5,0,14,4,17,0.01,5,Fog,190
2012-12-11,72,65,57,66,59,49,87,80,73,30.13,29.98,29.84,10,9,5,15,3,17,0.02,7,Rain,11
2012-12-12,57,54,51,52,48,45,89,80,71,30.22,30.14,30.09,10,7,2,15,5,20,0.36,8,Rain,22
2012-12-13,52,50,47,47,44,42,86,79,71,30.35,30.28,30.19,10,10,7,17,10,20,0.01,8,,25
2012-12-14,66,56,45,47,44,42,93,69,45,30.38,30.29,30.22,10,9,3,13,5,17,0.00,4,,45
2012-12-15,74,60,45,58,51,41,90,74,57,30.24,30.17,30.10,10,9,3,7,2,10,0.00,4,,64
2012-12-16,81,69,56,61,58,53,90,71,52,30.09,30.04,29.96,10,4,0,14,5,25,0.00,5,Fog,169
2012-12-17,76,69,61,66,61,57,93,81,69,29.97,29.90,29.83,10,8,1,16,5,29,0.62,7,Rain-Thunderstorm,180
2012-12-18,72,57,41,59,50,33,90,60,29,30.08,29.95,29.85,10,8,1,10,3,17,0.00,2,,284
2012-12-19,75,56,36,43,37,32,89,55,21,30.17,30.12,30.09,10,10,9,7,1,9,0.00,0,,165
2012-12-20,79,60,41,68,56,36,89,69,48,30.11,29.93,29.80,10,7,1,23,8,32,1.03,5,Rain,203
2012-12-21,56,46,35,35,23,15,58,39,20,30.25,30.15,30.05,10,10,10,14,6,25,0.00,0,,302
2012-12-22,60,45,30,28,21,15,75,47,19,30.36,30.29,30.25,10,10,10,9,2,17,0.00,0,,313
2012-12-23,66,48,29,36,29,20,85,52,19,30.31,30.24,30.18,10,10,10,7,0,10,0.00,0,,315
2012-12-24,71,57,42,58,51,35,90,74,57,30.15,30.02,29.95,10,9,2,16,6,31,0.37,5,Rain,186
2012-12-25,68,63,58,64,60,56,93,86,78,30.02,29.94,29.85,10,5,0,15,5,20,0.18,7,Fog-Rain-Thunderstorm,151
2012-12-26,68,55,41,63,49,30,90,69,47,30.06,29.80,29.63,10,9,1,25,10,33,0.05,6,Rain-Thunderstorm,233
2012-12-27,59,46,33,38,33,29,89,65,40,30.17,30.10,30.06,10,10,3,8,2,16,0.00,2,,340
2012-12-28,62,47,32,48,38,29,89,68,46,30.16,30.05,29.89,10,8,3,9,3,12,T,4,Rain,133
2012-12-29,64,53,42,61,48,27,97,77,57,30.27,29.95,29.74,10,8,2,14,6,23,0.04,7,Rain,240
2012-12-30,55,44,32,31,28,26,85,60,35,30.46,30.39,30.29,10,10,8,14,3,17,0.00,0,,18
2012-12-31,69,50,30,49,39,27,92,71,49,30.45,30.35,30.26,10,8,5,14,2,18,0.00,2,,150